Location: Arboyeti
(42.1122°N, 44.6017°E)
Time: 05:03:21
(UTC+00:00)

Cosmos 1408 - Pass Details

Date: 19 April 2021
Orbit: 467 x 493 km, 82.6° (Epoch: 09 May)

Event Time Altitude Azimuth Distance (km) Brightness Sun altitude
Rises 16:37:33 0° 355° (N) 2,515 6.6 -9.5°
Reaches altitude 10° 16:39:40 10° 358° (N) 1,633 5.6 -9.9°
Maximum altitude 16:43:12 64° 81° (E) 522 2.5 -10.5°
Drops below altitude 10° 16:46:42 10° 163° (SSE) 1,619 4.8 -11.1°
Enters shadow 16:47:14 - 165° (SSE) 1,837 5.1 -11.1°
